Location: ???????
(55.4362°N, 38.1183°E)
Time: 16:54:07
(UTC+00:00)

Cosmos 2333 Rocket - Pass Details

Date: 29 October 2021
Orbit: 837 x 865 km, 70.8° (Epoch: 04 December)

Event Time Altitude Azimuth Distance (km) Brightness Sun altitude
Rises 19:10:03 0° 272° (W) 3,418 5.8 -42.2°
Reaches altitude 10° 19:13:04 10° 288° (WNW) 2,489 5.1 -42.4°
Enters shadow 19:15:24 18° 310° (NW) 1,964 4.6 -42.7°
